User: anonymous   Login
Location: Vancouver
(49.2500°N, 123.1330°W)
Time: 09:46:22
(UTC-07:00)
Language:

Cosmos 1939 Rocket - Orbit

View from above orbital plane
View from above orbital plane
View from above satellite
View from above satellite

Ground track
Ground track

The orbit data is extracted from the following two-line orbital elements,

1 19046U 88032B   14297.24846394  .00002287  00000-0  18631-3 0   299
2 19046 097.6366 349.4576 0038373 025.4487 334.8615 14.99928383427549
Epoch (UTC): 24 October 2014 05:57:47
Eccentricity: 0.0038373
inclination: 97.6366°
perigee height: 540 km
apogee height: 594 km
right ascension of ascending node: 349.4576°
argument of perigee: 25.4487°
revolutions per day: 14.99928383
mean anomaly at epoch: 334.8615°
orbit number at epoch: 42754

The dashed part of the orbit path shows where the satellite is in the earth's shadow,  

DLR